Kinston, NC

2:52 PM EDT on September 24, 2017 (GMT -0400)
Kinston Regional Jetport / Stallings Field

Weather History for KISO - March, 2013

Change the Weather History Date:

Monday, March 18, 2013

  Actual Average Record
Temperature  
Mean Temperature 50 °F -  
Max Temperature 59 °F 62 °F 84 °F (2011)
Min Temperature 41 °F 42 °F 21 °F (1967)
Degree Days  
Heating Degree Days 15    
Moisture  
Dew Point 44 °F    
Average Humidity 89    
Maximum Humidity 100    
Minimum Humidity 72    
Precipitation  
Precipitation 0.00 in - - ()
Sea Level Pressure  
Sea Level Pressure 30.09 in    
Wind  
Wind Speed 9 mph (NNE)    
Max Wind Speed 13 mph    
Max Gust Speed 18 mph    
Visibility 8 miles    
Events      
Averages and records for this station are not official NWS values.
T = Trace of Precipitation, MM = Missing Value Source: NWS Daily Summary

Daily Weather History Graph

Daily Weather History Graph

Search for Another Location

Airport or City:

Trip Planner

Search our weather history database for the weather conditions in past years. The results will help you decide how hot, cold, wet, or windy it might be!

Date:

Astronomy

Mar. 18, 2013 Rise Set
Actual Time 7:16 AM EDT 7:20 PM EDT
Civil Twilight 6:51 AM EDT 7:46 PM EDT
Nautical Twilight 6:21 AM EDT 8:15 PM EDT
Astronomical Twilight 5:51 AM EDT 8:45 PM EDT
Moon 11:26 AM EDT (3/18) 1:06 AM EDT (3/18)
Length of Visible Light 12h 54m
Length of Day
12h 04m
Waxing Crescent, 40% of the Moon is Illuminated
Mar 18
Waxing Crescent
Mar 19
First Quarter
Mar 27
Full
Apr 3
Last Quarter
Apr 10
New

Hourly Weather History & Observations

Time (EDT) Temp. Windchill Dew Point Humidity Pressure Visibility Wind Dir Wind Speed Gust Speed Precip Events Conditions
12:15 AM 44.6 °F 38.8 °F 38.5 °F 79% 30.18 in 7.0 mi NE 11.5 mph 17.3 mph N/A   Overcast
12:35 AM 44.2 °F 38.8 °F 39.2 °F 82% 30.18 in 10.0 mi NE 10.4 mph - N/A   Mostly Cloudy
12:55 AM 43.5 °F 37.5 °F 39.7 °F 87% 30.17 in 4.0 mi NE 11.5 mph - N/A   Overcast
1:15 AM 43.0 °F 37.7 °F 40.6 °F 91% 30.17 in 5.0 mi NE 9.2 mph - N/A   Overcast
1:35 AM 42.8 °F 37.0 °F 41.0 °F 93% 30.17 in 5.0 mi NE 10.4 mph - N/A   Overcast
1:55 AM 42.8 °F 36.2 °F 40.6 °F 92% 30.16 in 7.0 mi NE 12.7 mph 17.3 mph N/A   Overcast
2:15 AM 42.8 °F 37.0 °F 41.0 °F 93% 30.17 in 7.0 mi NE 10.4 mph - N/A   Overcast
2:35 AM 43.0 °F 37.2 °F 40.8 °F 92% 30.17 in 10.0 mi NE 10.4 mph - N/A   Overcast
2:55 AM 43.2 °F 37.9 °F 40.6 °F 91% 30.16 in 10.0 mi NE 9.2 mph - N/A   Overcast
3:15 AM 43.5 °F 37.1 °F 40.8 °F 90% 30.15 in 10.0 mi ENE 12.7 mph - N/A   Overcast
3:35 AM 43.7 °F 39.1 °F 41.0 °F 90% 30.15 in 10.0 mi ENE 8.1 mph - N/A   Overcast
3:55 AM 43.7 °F 38.1 °F 41.0 °F 90% 30.14 in 10.0 mi NE 10.4 mph - N/A   Overcast
4:15 AM 43.7 °F 38.6 °F 41.4 °F 91% 30.14 in 10.0 mi NE 9.2 mph - N/A   Overcast
4:35 AM 43.7 °F 38.6 °F 41.4 °F 91% 30.13 in 10.0 mi NNE 9.2 mph - N/A   Overcast
4:55 AM 43.7 °F 38.1 °F 41.5 °F 92% 30.13 in 10.0 mi NE 10.4 mph - N/A   Overcast
5:15 AM 43.5 °F 37.9 °F 41.4 °F 92% 30.14 in 10.0 mi NE 10.4 mph - N/A   Overcast
5:35 AM 43.3 °F 38.1 °F 41.4 °F 93% 30.14 in 10.0 mi NE 9.2 mph 18.4 mph N/A   Overcast
5:55 AM 43.3 °F 37.2 °F 41.4 °F 93% 30.13 in 10.0 mi NE 11.5 mph - N/A   Overcast
6:15 AM 43.2 °F 37.4 °F 41.2 °F 93% 30.15 in 7.0 mi NNE 10.4 mph - N/A   Overcast
6:35 AM 42.8 °F 38.0 °F 41.0 °F 93% 30.17 in 7.0 mi NNE 8.1 mph - N/A   Overcast
6:55 AM 42.8 °F 37.0 °F 41.0 °F 93% 30.17 in 7.0 mi NNE 10.4 mph - N/A   Overcast
6:56 AM 42.8 °F 37.5 °F 41.0 °F 93% 30.17 in 5.0 mi NNE 9.2 mph - N/A   Overcast
7:56 AM 42.8 °F 38.0 °F 41.0 °F 93% 30.18 in 2.0 mi NNE 8.1 mph - N/A   Overcast
8:56 AM 41.0 °F 35.2 °F 41.0 °F 100% 30.19 in 3.0 mi NNE 9.2 mph - N/A   Overcast
9:09 AM 59.0 °F - 53.6 °F 82% 29.97 in 7.0 mi ESE 9.2 mph - N/A   Overcast
9:56 AM 42.8 °F 37.0 °F 41.0 °F 93% 30.17 in 5.0 mi NNE 10.4 mph - N/A   Overcast
10:56 AM 44.6 °F 39.7 °F 42.8 °F 93% 30.15 in 7.0 mi NE 9.2 mph - N/A   Overcast
11:56 AM 46.4 °F 41.9 °F 42.8 °F 87% 30.12 in 7.0 mi ENE 9.2 mph - N/A   Overcast
12:56 PM 48.2 °F - 44.6 °F 87% 30.12 in 7.0 mi East 4.6 mph - N/A   Overcast
1:56 PM 53.6 °F - 46.4 °F 77% 30.07 in 10.0 mi ENE 3.5 mph - N/A   Overcast
2:56 PM 55.4 °F - 46.4 °F 72% 30.04 in 10.0 mi NE 3.5 mph - N/A   Overcast
3:56 PM 55.4 °F - 48.2 °F 77% 30.01 in 10.0 mi North 4.6 mph - N/A   Overcast
4:56 PM 55.4 °F - 48.2 °F 77% 29.99 in 10.0 mi NE 5.8 mph - N/A   Mostly Cloudy
5:56 PM 55.4 °F - 48.2 °F 77% 29.98 in 10.0 mi NNE 3.5 mph - N/A   Mostly Cloudy
6:56 PM 55.4 °F - 48.2 °F 77% 29.96 in 10.0 mi NNE 4.6 mph - N/A   Overcast
7:56 PM 53.6 °F - 48.2 °F 82% 29.96 in 10.0 mi North 4.6 mph - N/A   Overcast
8:56 PM 51.8 °F - 48.2 °F 88% 29.95 in 10.0 mi North 9.2 mph - N/A   Overcast
9:15 PM 51.3 °F - 47.7 °F 87% 29.95 in 10.0 mi North 5.8 mph - N/A   Overcast
9:35 PM 50.9 °F - 47.8 °F 89% 29.96 in 10.0 mi North 3.5 mph - N/A   Overcast
9:55 PM 50.9 °F - 48.2 °F 90% 29.94 in 7.0 mi NE 5.8 mph - N/A   Overcast
10:15 PM 50.9 °F - 48.2 °F 90% 29.94 in 7.0 mi North 4.6 mph - N/A   Overcast
10:35 PM 50.0 °F - 47.7 °F 92% 29.95 in 7.0 mi NNW 5.8 mph - N/A   Overcast
10:55 PM 49.5 °F - 47.5 °F 93% 29.96 in 5.0 mi NNW 5.8 mph - N/A   Overcast
11:15 PM 49.1 °F - 47.3 °F 93% 29.95 in 4.0 mi NNW 5.8 mph - N/A   Light Drizzle
11:55 PM 48.2 °F - 46.8 °F 95% 29.93 in 5.0 mi North 4.6 mph - N/A   Overcast